#timestamp,LO_Frequency,Hit,StdDev 
1619812815.7,286046999.1,N
1619812835.6,286046997.3,N
1619812855.4,286046997.7,N
1619812875.2,286046998.0,N
1619812895.1,286046999.5,N
1619812896.0,286046999.5,N
1619812915.8,286046999.1,N
1619812935.7,286046997.7,N
1619812955.5,286046995.3,N
1619812975.3,286046999.6,N
1619812995.2,286047000.1,N
1619813015.0,286046999.9,N
1619813015.9,286046999.9,N
1619813035.8,286047002.2,N
1619813055.6,286047004.1,N
1619813075.4,286047003.9,N
1619813095.3,286047002.2,N
1619813115.1,286047002.5,N
1619813135.8,286046998.2,N
1619813155.7,286047001.1,N
1619813175.5,286047000.3,N
1619813195.4,286046999.3,N
1619813215.2,286046996.9,N
1619813235.0,286046996.7,N
1619813235.9,286046996.7,N
1619813255.8,286047001.0,N
1619813275.6,286047002.1,N
1619813295.4,286047001.7,N
1619813315.3,286047001.6,N
1619813335.1,286047004.8,N
1619813355.9,286047001.8,N
1619813375.7,286047002.7,N
1619813395.5,286047000.3,N
1619813415.4,286047000.4,N
1619813435.2,286047001.5,N
1619813455.0,286047000.9,N
1619813455.9,286047000.9,N
1619813475.8,286047000.0,N
1619813495.6,286047000.6,N
1619813515.5,286047000.8,N
1619813535.3,286047000.1,N
1619813555.1,286046998.4,N
1619813575.9,286046999.2,N
1619813595.7,286046997.8,N
1619813615.5,286046995.3,N
1619813635.4,286046995.6,N
1619813655.2,286046997.6,N
1619813675.1,286046998.3,N
1619813676.0,286046998.3,N
1619813695.8,286046998.1,N
1619813715.6,286047002.6,N
1619813735.5,286047001.4,N
1619813755.3,286047003.4,N
1619813775.1,286047005.8,N
1619813795.9,286047005.8,N
1619813815.7,286047001.8,N
1619813835.6,286047000.6,N
1619813855.4,286047001.3,N
1619813875.2,286047002.2,N
1619813895.1,286046998.2,N
1619813896.0,286046998.2,N
1619813915.8,286046999.1,N
1619813935.7,286046998.9,N
1619813955.5,286047000.2,N
1619813975.3,286047003.7,N
1619813995.2,286047001.8,N
1619814015.9,286047002.7,N
1619814035.7,286047003.1,N
1619814055.6,286047005.6,N
1619814075.4,286047005.1,N
1619814095.3,286047005.4,N
1619814115.1,286047002.9,N
1619814116.0,286047002.9,N
1619814135.8,286047001.8,N
1619814155.7,286047002.1,N
1619814175.5,286047001.5,N
1619814195.3,286047004.9,N
1619814215.2,286047003.0,N
1619814235.0,286047005.3,N
1619814235.9,286047005.3,N
1619814255.8,286047005.8,N
1619814275.6,286047005.9,N
1619814295.4,286047002.9,N
1619814315.3,286047005.6,N
1619814335.1,286047004.8,N
1619814355.8,286047003.1,N
1619814375.7,286047001.3,N
1619814395.5,286047002.9,N
1619814415.4,286047002.6,N
1619814435.2,286046999.9,N
1619814455.0,286047001.1,N
1619814455.9,286047001.1,N
1619814475.8,286046996.9,N
1619814495.6,286046999.0,N
1619814515.5,286046998.7,N
1619814535.3,286046999.9,N
1619814555.1,286047004.0,N
1619814575.9,286047001.6,N
1619814595.7,286047001.6,N
1619814615.6,286047006.0,N
1619814635.4,286047007.5,Y
1619814655.2,286047000.2,P
1619814675.1,286047000.5,N
1619814676.0,286047000.5,N
1619814695.8,286046999.7,N
1619814715.7,286047000.0,N
1619814735.5,286046999.3,N
1619814755.3,286047002.5,N
1619814775.2,286047001.9,N
1619814795.0,286047001.6,N
1619814795.9,286047001.6,N
1619814815.8,286047000.7,N
1619814835.6,286047001.2,N
1619814855.4,286046998.7,N
1619814875.3,286046999.1,N
1619814895.1,286046998.3,N
1619814915.8,286046997.6,N
1619814935.7,286046995.3,Y
1619814955.5,286046997.8,P
1619814975.4,286046997.2,N
1619814995.2,286046999.3,N
1619815015.0,286047000.6,N
1619815015.9,286047000.6,N
1619815035.8,286047000.4,N
1619815055.6,286047002.5,N
1619815075.5,286047001.1,N
1619815095.3,286047000.7,N
1619815115.1,286046998.2,N
1619815135.9,286046998.1,N
1619815155.7,286047001.7,N
1619815175.5,286047001.5,N
1619815195.4,286047001.7,N
1619815215.2,286047002.1,N
1619815235.0,286047001.6,N
1619815236.0,286047001.6,N
1619815255.8,286046998.2,N
1619815275.6,286046996.9,N
1619815295.5,286046997.4,N
1619815315.3,286046999.5,N
1619815335.1,286046999.9,N
1619815355.9,286047002.7,N
1619815375.7,286047001.8,N
1619815395.6,286047002.6,N
1619815415.4,286047004.2,N
1619815435.2,286047001.1,N
1619815455.1,286046997.2,N
1619815456.0,286046997.2,N
1619815475.8,286046995.2,N
1619815495.6,286046998.0,N
1619815515.5,286046997.2,N
1619815535.3,286046998.8,N
1619815555.2,286046998.9,N
1619815575.9,286046996.7,N
1619815595.7,286046995.1,N
1619815615.6,286046997.0,N
1619815635.4,286046999.6,N
1619815655.2,286046999.2,N
1619815675.1,286046999.2,N
1619815676.0,286046999.2,N
1619815695.8,286046998.6,N
1619815715.7,286046997.6,N
1619815735.5,286046997.3,N
1619815755.3,286046998.8,N
1619815775.2,286046998.3,N
1619815795.0,286047002.5,N
1619815795.9,286047002.5,N
1619815815.8,286047004.4,N
1619815835.6,286047005.6,N
1619815855.4,286047005.6,N
1619815875.3,286047004.3,N
1619815895.1,286047001.4,N
1619815915.8,286047000.8,N
1619815935.7,286046998.1,N
1619815955.5,286046998.2,N
1619815975.4,286046998.1,N
1619815995.2,286046998.9,N
1619816015.0,286047001.1,N
1619816015.9,286047001.1,N
1619816035.8,286046998.6,N
1619816055.6,286046999.3,N
1619816075.4,286046997.8,N
1619816095.3,286046996.8,N
1619816115.1,286046999.3,N
1619816135.9,286046998.2,N
1619816155.7,286046999.0,N
1619816175.5,286046996.6,N
1619816195.4,286046998.6,N
1619816215.2,286047001.2,N
1619816235.0,286046996.5,N
1619816235.9,286046996.5,N
1619816255.8,286046997.3,N
1619816275.6,286047002.8,N
1619816295.5,286047003.7,N
1619816315.3,286047003.5,N
1619816335.1,286047003.4,N
1619816355.9,286047002.0,N
1619816375.7,286046998.4,N
1619816395.6,286046997.1,N
